Regional Weather Roundup
Issued by NWS

Home | Current Version | Previous Version | Text Only | Print | Product List | Glossary On
Versions: 1 2 3 4 5 6 7 8 9 10 11 12 13 14 15 16 17 18 19 20 21 22 23 24 25 26 27 28 29 30 31 32 33 34 35 36 37 38 39 40 41 42 43 44 45 46 47 48 49 50
000
ASUS44 KLIX 160013
RWRLA
LOUISIANA WEATHER ROUNDUP
NATIONAL WEATHER SERVICE NEW ORLEANS LA
600 PM CST FRI DEC 15 2017

NOTE: "FAIR" INDICATES FEW OR NO CLOUDS BELOW 12,000 FEET WITH NO
      SIGNIFICANT WEATHER AND/OR OBSTRUCTIONS TO VISIBILITY.
      SKY/WX - SKY CONDITION AND SIGNIFICANT WEATHER.
      TMP - AIR TEMPERATURE.    DP   - DEWPOINT TEMPERATURE.
      RH  - RELATIVE HUMIDITY.  PRES - PRESSURE.
      HX  - HEAT INDEX.         WCI  - WIND CHILL INDEX.

*  THESE STATIONS ARE NOT NWS OR FAA STATIONS AND ARE NOT UNDER
   NWS QUALITY CONTROL.

LAZ040-048-061>063-065-066-069-160100-
SOUTHEAST LOUISIANA

CITY           SKY/WX    TMP DP  RH WIND       PRES   REMARKS
N.O. INTL ARPT LGT RAIN  49  37  63 N3        30.23R
6HR MIN TEMP:  48; 6HR MAX TEMP:  49; 6HR PCP: TRACE;

N.O. LAKEFRONT CLOUDY    48  36  63 N12       30.24R
6HR MIN TEMP:  48; 6HR MAX TEMP:  49; 6HR PCP:  0.01;

N.O. DOWNTOWN* CLOUDY    48  35  60 VRB6      30.24R
6HR MIN TEMP:  47; 6HR MAX TEMP:  49; 6HR PCP:  0.01;

RESERVE*       FAIR      48  36  64 N5        30.23R
6HR MIN TEMP:  48; 6HR MAX TEMP:  49;

SLIDELL        LGT RAIN  45  38  76 CALM      30.22R
6HR MIN TEMP:  45; 6HR MAX TEMP:  49; 6HR PCP: TRACE;

BATON ROUGE    CLOUDY    46  32  58 N3        30.23R
6HR MIN TEMP:  46; 6HR MAX TEMP:  49; 6HR PCP: TRACE;

BOOTHVILLE     CLOUDY    51  42  71 N7        30.20F
6HR MIN TEMP:  51; 6HR MAX TEMP:  52; 6HR PCP:  0.01;

BELLE CHASSE   NOT AVBL
BOGALUSA*      FAIR      45  37  74 MISG      30.24R
6HR MIN TEMP:  45; 6HR MAX TEMP:  49;

GALLIANO*      CLOUDY    46  39  76 N9        30.22R
6HR MIN TEMP:  46; 6HR MAX TEMP:  48; 6HR PCP:  0.01;

NEW ROADS*     FAIR      43  35  71 N3        30.24R
6HR MIN TEMP:  43; 6HR MAX TEMP:  49;

GONZALES*      FAIR      46  33  60 CALM      30.24R
6HR MIN TEMP:  46; 6HR MAX TEMP:  48; 6HR PCP:  0.01;

HAMMOND*       MOCLDY    43  37  81 CALM      30.24R
HOUMA*         NOT AVBL
PORT FOURCHON* NOT AVBL

$$

LAZ041-044-053-054-160100-
SOUTHWEST LOUISIANA

CITY           SKY/WX    TMP DP  RH WIND       PRES   REMARKS
LAKE CHARLES   MOCLDY    49  35  58 NE3       30.24R
6HR MIN TEMP:  49; 6HR MAX TEMP:  53;

LAFAYETTE      CLOUDY    46  35  65 N5        30.23R
6HR MIN TEMP:  46; 6HR MAX TEMP:  49; 6HR PCP: TRACE;

PATTERSON      CLOUDY    46  40  79 N6        30.23S
6HR MIN TEMP:  46; 6HR MAX TEMP:  48; 6HR PCP:  0.01;

SALT POINT       N/A     46  41  82 CALM      30.21F
6HR MIN TEMP:  46; 6HR MAX TEMP:  48;

NEW IBERIA     CLOUDY    47  34  60 N6        30.23R
6HR MIN TEMP:  46; 6HR MAX TEMP:  49; 6HR PCP:  0.02;

CHENAULT AIRPK CLEAR     48  34  57 VRB5      30.24R

$$

LAZ027-028-160100-
CENTRAL LOUISIANA

CITY           SKY/WX    TMP DP  RH WIND       PRES   REMARKS
FORT POLK      CLOUDY    45  37  76 CALM      30.22R HAZE
6HR MIN TEMP:  44; 6HR MAX TEMP:  51;

ALEXANDRIA INT CLOUDY    44  32  62 CALM      30.22R
6HR MIN TEMP:  44; 6HR MAX TEMP:  51;

ALEXANDRIA     PTCLDY    40  35  83 CALM      30.23R
6HR MIN TEMP:  40; 6HR MAX TEMP:  51;


$$

LAZ001-002-160100-
NORTHWEST LOUISIANA

CITY           SKY/WX    TMP DP  RH WIND       PRES   REMARKS
SHREVEPORT     PTCLDY    45  31  58 CALM      30.22R
6HR MIN TEMP:  45; 6HR MAX TEMP:  55;

BARKSDALE AFB  CLEAR     43  28  54 SE5       30.21S
6HR MIN TEMP:  42; 6HR MAX TEMP:  54;

DTN SHREVEPORT CLEAR     50  30  46 CALM      30.22R
6HR MIN TEMP:  48; 6HR MAX TEMP:  55;


$$

LAZ014-016-160100-
NORTHEAST LOUISIANA

CITY           SKY/WX    TMP DP  RH WIND       PRES   REMARKS
MONROE         PTCLDY    41  31  67 CALM      30.26R
6HR MIN TEMP:  41; 6HR MAX TEMP:  50;

TALLULAH       CLOUDY    37  27  67 CALM      30.25R
6HR MIN TEMP:  37; 6HR MAX TEMP:  48;


$$




USA.gov is the U.S. government's official web portal to all federal, state and local government web resources and services.